• Join FlightAware (Why Join?)
  • Login
  • US Flag 
11:22AM EDT


 

Airport Tracker/Info


-or-


 

Live Flight TrackerFlight Track Log ✈ SWA3321 ✈ 10-Apr-2013 ✈ KLAS - KSMF

Flight Track Log - Related Links

Times and Time Zones

All times are in EDT time to prevent confusion due to time zone crossing. See the SWA3321 flight status page for this flight to view local times or setup timezone preferences in your user account.

Time Position Orientation Groundspeed Altitude Reporting Facility
EDT Latitude Longitude Course Direction KTS MPH feet Rate Location/Type
02:54PM 36.0769 -115.0828 90° East 183 211 3,900  Level Los Angeles Center
02:55PM 36.0769 -115.0100 90° East 205 236 6,100 2,700 Climbing Los Angeles Center
02:56PM 36.0242 -114.9300 129° Southeast 313 360 9,400 2,580 Climbing Los Angeles Center
02:57PM 35.9347 -114.9358 183° South 371 427 11,400 2,640 Climbing Los Angeles Center
02:58PM 35.8519 -115.0356 224° Southwest 386 444 15,000 3,060 Climbing Los Angeles Center
02:59PM 35.8286 -115.1628 257° West 392 451 18,000 1,920 Climbing Los Angeles Center
03:00PM 35.8397 -115.2947 276° West 386 444 19,000 720 Climbing Los Angeles Center
03:01PM 35.8511 -115.4253 276° West 383 441 19,600 1,800 Climbing Los Angeles Center
03:02PM 35.8622 -115.5639 276° West 381 438 22,800 1,800 Climbing Los Angeles Center
03:03PM 35.8739 -115.7078 276° West 390 449 23,400 1,200 Climbing Los Angeles Center
03:04PM 35.8839 -115.8278 276° West 399 459 25,300 1,800 Climbing Los Angeles Center
03:05PM 35.9086 -115.9794 281° West 408 470 27,200 1,740 Climbing Los Angeles Center
03:06PM 35.9894 -116.0778 315° West 410 472 29,000 2,040 Climbing Los Angeles Center
03:07PM 36.0764 -116.1881 314° West 407 468 31,500 2,160 Climbing Los Angeles Center
03:08PM 36.1469 -116.2731 316° Northwest 399 459 33,500 1,200 Climbing Los Angeles Center
03:09PM 36.2394 -116.3881 315° West 395 455 34,000 240 Climbing Los Angeles Center
03:10PM 36.3169 -116.4839 315° West 395 455 34,000  Level Los Angeles Center
03:11PM 36.3956 -116.5806 315° West 398 458 34,000  Level Los Angeles Center
03:12PM 36.4728 -116.6789 314° West 400 460 34,000  Level Los Angeles Center
03:13PM 36.5617 -116.7906 315° West 399 459 34,000  Level Los Angeles Center
03:14PM 36.6439 -116.8936 315° West 399 459 34,000  Level Los Angeles Center
03:15PM 36.7219 -116.9914 315° West 399 459 34,000  Level Los Angeles Center
03:17PM 36.7964 -117.0858 315° West 400 460 34,000  Level Los Angeles Center
03:18PM 36.9053 -117.2269 314° West 403 464 34,000  Level Los Angeles Center
03:18PM 36.9208 -117.2472 314° West 400 460 34,000  Level Oakland Center
03:19PM 36.9986 -117.3464 314° West 400 460 34,000 660 Level Oakland Center
03:20PM 37.0786 -117.4492 314° West 406 467 35,400 960 Climbing Oakland Center
03:21PM 37.1564 -117.5489 314° West 401 461 36,000 240 Climbing Oakland Center
03:22PM 37.2339 -117.6494 314° West 398 458 36,000  Level Oakland Center
03:23PM 37.3128 -117.7511 314° West 403 464 36,000  Level Oakland Center
03:24PM 37.3897 -117.8500 314° West 398 458 36,000  Level Oakland Center
03:25PM 37.4831 -117.9717 314° West 400 460 36,000  Level Oakland Center
03:26PM 37.5617 -118.0739 314° West 404 465 36,000  Level Oakland Center
03:27PM 37.6400 -118.1781 314° West 408 470 36,000  Level Oakland Center
03:28PM 37.7178 -118.2806 314° West 404 465 36,000  Level Oakland Center
03:29PM 37.7961 -118.3836 314° West 405 466 36,000 -540 Level Oakland Center
03:30PM 37.8736 -118.4842 314° West 400 460 34,900 -1,020 Descending Oakland Center
03:31PM 37.9481 -118.5867 313° West 395 455 34,000 -960 Descending Oakland Center
03:32PM 38.0256 -118.6886 314° West 399 459 33,000 -1,080 Descending Oakland Center
03:33PM 38.1006 -118.7892 313° West 393 452 31,900 -1,080 Descending Oakland Center
03:34PM 38.1792 -118.8936 314° West 388 447 30,800 -960 Descending Oakland Center
03:35PM 38.2508 -118.9892 314° West 375 432 30,000 -420 Descending Oakland Center
03:36PM 38.3208 -119.0897 312° West 378 435 30,000  Level Oakland Center
03:37PM 38.3683 -119.2158 296° West 392 451 30,000 -300 Level Oakland Center
03:38PM 38.4128 -119.3417 294° West 390 449 29,400 -840 Descending Oakland Center
03:39PM 38.4567 -119.4614 295° West 379 436 28,400 -1,140 Descending Oakland Center
03:40PM 38.5056 -119.6014 294° West 365 420 27,200 -1,080 Descending Oakland Center
03:41PM 38.5483 -119.7172 295° West 361 415 26,200 -1,020 Descending Oakland Center
03:42PM 38.5886 -119.8300 295° West 354 407 25,200 -1,020 Descending Oakland Center
03:44PM 38.6278 -119.9428 294° West 348 400 24,200 -1,080 Descending Oakland Center
03:45PM 38.6678 -120.0544 295° West 347 399 23,100 -1,080 Descending Oakland Center
03:46PM 38.7064 -120.1647 294° West 342 394 22,100 -1,020 Descending Oakland Center
03:47PM 38.7442 -120.2722 294° West 337 388 21,100 -1,020 Descending Oakland Center
03:48PM 38.7819 -120.3794 294° West 332 382 20,100 -1,260 Descending Oakland Center
03:49PM 38.8175 -120.4839 294° West 325 374 18,600 -1,380 Descending Oakland Center
03:50PM 38.8394 -120.5889 285° West 315 362 17,300 -1,320 Descending Oakland Center
03:51PM 38.8483 -120.7242 275° West 318 366 16,000 -1,380 Descending Oakland Center
03:52PM 38.8556 -120.8369 275° West 319 367 14,600 -1,620 Descending Oakland Center
03:53PM 38.8631 -120.9469 275° West 314 361 12,800 -1,680 Descending Oakland Center
03:54PM 38.8706 -121.0572 275° West 313 360 11,200 -1,380 Descending Oakland Center
03:55PM 38.8778 -121.1614 275° West 300 345 10,000 -1,380 Descending Oakland Center
03:55PM 38.8833 -121.2000 280° West 284 327 9,400 -1,500 Descending Northern Cal TRACON
03:56PM 38.8667 -121.2833 256° West 280 322 8,200 -1,380 Descending Northern Cal TRACON
03:57PM 38.8667 -121.3833 270° West 276 318 6,800 -1,500 Descending Northern Cal TRACON
03:58PM 38.8667 -121.4833 270° West 276 318 5,300 -1,080 Descending Northern Cal TRACON
03:59PM 38.8500 -121.5833 258° West 263 303 4,700 -1,020 Descending Northern Cal TRACON
04:00PM 38.8333 -121.6667 256° West 278 320 3,300 -900 Descending Northern Cal TRACON
04:01PM 38.7500 -121.6833 189° South 266 306 3,000 -180 Descending Northern Cal TRACON
04:02PM 38.6992 -121.6842 181° South 247 284 3,000 -120 Level Oakland Center
04:03PM 38.6406 -121.6844 180° South 220 253 2,800 -660 Descending Oakland Center
04:04PM 38.6206 -121.6358 118° Southeast 181 208 1,700 -1,080 Descending Oakland Center
04:05PM 38.6500 -121.6000 44° Northeast 135 155 700 -840 Descending Northern Cal TRACON
04:06PM 38.6833 -121.6000 360° North 136 157 100 -600 Descending Northern Cal TRACON